Location: Hylvaty SDH
(49.9612°N, 16.4057°E)
Time: 20:41:10
(UTC+01:00)

Vanguard 1 Rocket - Pass Details

Date: 02 October 2020
Orbit: 656 x 4221 km, 34.3° (Epoch: 30 October)

Event Time Altitude Azimuth Distance (km) Brightness Sun altitude
Rises 23:08:19 0° 273° (W) 6,569 12.2 -39.9°
Reaches altitude 10° 23:12:45 10° 265° (W) 5,992 11.7 -40.2°
Maximum altitude 23:29:37 34° 210° (SSW) 5,376 10.9 -41.5°
Enters shadow 23:29:59 34° 209° (SSW) 5,390 10.9 -41.5°
Drops below altitude 10° 23:50:37 10° 157° (SSE) 7,320 - -42.7°
Sets 23:57:00 0° 149° (SSE) 8,131 - -43.0°
